Regional Weather Roundup
Issued by NWS Upton, NY

Current Version | Previous Version | Graphics & Text | Print | Product List | Glossary Off
Versions: 1 2 3 4 5 6 7 8 9 10 11 12 13 14 15 16 17 18 19 20 21 22 23 24 25 26 27 28 29 30 31 32 33 34 35 36 37 38 39 40 41 42 43 44 45 46 47 48 49 50

000
ASUS41 KOKX 180808
RWROKX

REGIONAL WEATHER ROUNDUP
NATIONAL WEATHER SERVICE NEW YORK NY
400 AM EDT SAT APR 18 2015

NOTE: "FAIR" INDICATES FEW OR NO CLOUDS BELOW 12,000 FEET WITH NO
SIGNIFICANT WEATHER AND/OR OBSTRUCTIONS TO VISIBILITY.

NYZ071-072-176-178-NJZ106-104-180900-
NEW YORK CITY METRO AREA


CITY           SKY/WX    TMP DP  RH WIND       PRES   REMARKS
CENTRAL PARK   CLEAR     60  44  55 CALM      29.99S
LAGUARDIA APRT PTCLDY    58  44  60 NW3       29.95S
KENNEDY INTL   PTCLDY    58  46  64 NW5       29.97S
NEWARK/LIBERTY MOCLDY    59  46  62 N6        29.97R
BRNX BOT. GARD   N/A     57  43  58 N3        29.98S
TETERBORO      CLEAR     53  46  77 CALM      29.95S
$$

NYZ177-179-078>081-180900-
LONG ISLAND NEW YORK

CITY           SKY/WX    TMP DP  RH WIND       PRES   REMARKS
FARMINGDALE    CLEAR     52  46  80 CALM      29.96R
ISLIP          CLEAR     50  44  80 W5        29.94S
SHIRLEY        CLEAR     48  46  93 S3        29.96S
WESTHAMPTON    FOG       42  41  96 CALM      29.96S VSB 3/4
MONTAUK POINT    N/A     50  46  86 W5        29.95S
$$

NYZ052-065-067-180900-
HUDSON VALLEY

CITY           SKY/WX    TMP DP  RH WIND       PRES   REMARKS
WHITE PLAINS   CLEAR     49  43  80 NW6       29.95S
NEWBURGH       CLEAR     50  45  81 CALM      29.98S
MONTGOMERY     CLEAR     44  41  89 CALM      29.96S
POUGHKEEPSIE   CLEAR     43  40  89 CALM      29.96S
ALBANY         CLEAR     44  41  89 CALM      29.95S
$$

NJZ001-105-106-008-010-013-015-019>022-104-180900-
NEW JERSEY

CITY           SKY/WX    TMP DP  RH WIND       PRES   REMARKS
NEWARK/LIBERTY MOCLDY    59  46  62 N6        29.97R
TETERBORO      CLEAR     53  46  77 CALM      29.95S
CALDWELL       CLEAR     50  44  80 CALM      29.97S
MORRISTOWN     CLEAR     46  43  87 CALM      29.98R FOG
SOMERVILLE     PTCLDY    46  43  89 CALM      29.96S
SUSSEX         CLEAR     45  42  89 CALM      29.99S
ANDOVER          N/A     46  45  96 CALM      29.98S
TRENTON        CLEAR     52  49  89 S3        29.97S
MILLVILLE      FOG       52  51  97 CALM      29.96S VSB 1/2
ATLANTIC CITY  CLEAR     53  51  93 N6        29.96S FOG
WRIGHTSTOWN    FOG       54  54 100 CALM      29.94S VSB 1/2
TOMS RIVER     CLOUDY    46  45  93 CALM      29.98S VSB 1
BELMAR         MOCLDY    57  48  72 N3        29.97S
$$

PAZ047>061-062-071-180900-
EASTERN PENNSYLVANIA

CITY           SKY/WX    TMP DP  RH WIND       PRES   REMARKS
PHILADELPHIA   MOCLDY    58  53  84 E3        29.98S
ALLENTOWN      CLEAR     47  45  93 NW3       29.99S FOG
SCRANTON       CLEAR     48  44  86 E5        29.99S
$$

CTZ002-004>006-009-010-012-RIZ004-006-007-MAZ004-011-015-180900-
SOUTHERN NEW ENGLAND
 IN CT

CITY           SKY/WX    TMP DP  RH WIND       PRES   REMARKS
BRADLEY INTL   CLEAR     45  42  89 W3        29.93F
HARTFORD       FOG       44  42  93 CALM      29.95S VSB 3/4
DANBURY        CLEAR     40  37  89 SW3       29.97F
WTRBRY/OXFORD  CLEAR     46  37  71 N7        29.97S
BRIDGEPORT     CLEAR     48  45  89 CALM      29.95S
MERIDEN        CLEAR     45  43  93 CALM      29.95S
NEW HAVEN      CLEAR     45  42  89 CALM      29.95S
CHESTER        FAIR      54  46  76 NW7       29.95R
GROTON         CLEAR     46  44  93 CALM      29.93R
WILLIMANTIC    PTCLDY    42  39  89 CALM      29.94S

 IN RI

CITY           SKY/WX    TMP DP  RH WIND       PRES   REMARKS
PROVIDENCE     CLEAR     49  43  80 CALM      29.92S
BLOCK ISLAND   CLEAR     52  45  76 NW7       29.93S
WESTERLY       CLEAR     48  45  89 CALM      29.94R

 IN MA

CITY           SKY/WX    TMP DP  RH WIND       PRES   REMARKS
BOSTON         CLEAR     53  44  71 W12       29.91S
WORCESTER      CLEAR     49  41  74 W13       29.92S
WESTFIELD      CLEAR     44  41  89 S3        29.93S
PROVINCETOWN   CLEAR     46  45  93 W6        29.91R
NANTUCKET      FOG       42  41  96 W3        29.91S VSB 1
$$

ANZ330-335-338-340-345-350-353-355-180900-
COASTAL MARINE OBSERVATIONS


STATION/POSITION TIME  SKY/WX   TEMP    WIND        PRES    VSBY  WAVE
                                AIR SEA DIR/SP/G                  HT/PER
                 (UTC)          (F)     (DEG/KT/KT) (MB)    (MI)  (FT/S)
NY HARB ENTRANCE 0750            55 47  300/  4/  6 1014.3          3/ 9
4S FIRE IS       0703               44                N/A           3/ 8
20S FIRE ISLAND  0650               44              1014.8          3/ 7
23SW MTP         0750                                 N/A           3/ 7
HUDSON CANYON    NOT AVBL
EXECUTION ROCKS  NOT AVBL
WESTERN LI SOUND NOT AVBL
CENTRAL LI SOUND NOT AVBL
EASTERN LI SOUND 0700            50     340/  4/  6   N/A
ROBBINS REEF     0700            62     340/  4/  5 1013.5
$$


>>>>>>>>>>>>>>>>>>>>>>>>>>>> KEY <<<<<<<<<<<<<<<<<<<<<<<<<<<
>                                                          <
>     SKY/WX - SKY CONDITION/PRESENT WEATHER               <
>     TMP    - TEMPERATURE IN FAHRENHEIT                   <
>     DP     - DEWPOINT IN FAHRENHEIT                      <
>     RH     - RELATIVE HUMIDITY IN PERCENT                <
>     WIND   - DIRECTION AND SPEED IN MPH                  <
>     PRES   - MEAN SEA LEVEL PRESSURE IN INCHES OF HG     <
>     WCI    - WIND CHILL INDEX                            <
>     VSB    - VISIBILITY IN MILES                         <
>     HX     - HEAT INDEX                                  <
>     TC     - TEMPERATURE IN CELSIUS                      <
>     VRB    - VARIABLE WIND DIRECTION                     <
>                                                          <
>>>>>>>>>>>>>>>>>>>>>>>>>>>> KEY <<<<<<<<<<<<<<<<<<<<<<<<<<<




USA.gov is the U.S. government's official web portal to all federal, state and local government web resources and services.